EW6107 Weather Reports


time (UTC)temp
F
wind
direction
speed
knots
gust
knots
rain 1hr
in
rain 24hr
in
rain mn
in
humidity
%
barometer
mb
20191017124101 51 161 5.2 16.5 0.00 0.96 0.00 64 1002.8
20191017123602 51 133 5.2 13.0 0.00 0.96 0.00 64 1002.7
20191017123102 51 145 5.2 19.1 0.00 0.96 0.00 65 1002.7
20191017122601 51 113 7.0 13.0 0.00 0.96 0.00 66 1002.6
20191017122102 51 166 5.2 16.5 0.00 0.96 0.00 66 1002.5
20191017121603 50 111 2.6 16.5 0.00 0.96 0.00 67 1002.7
20191017121102 50 161 5.2 14.8 0.00 0.96 0.00 67 1002.7
20191017120603 50 131 2.6 13.0 0.00 0.96 0.00 68 1002.7
20191017120104 50 152 5.2 14.8 0.00 0.96 0.00 68 1002.6
20191017115603 50 135 0.9 13.9 0.00 0.96 0.00 68 1002.6
20191017115103 50 127 6.1 13.9 0.00 0.96 0.00 68 1002.5
20191017114603 50 176 3.5 12.2 0.00 0.96 0.00 69 1002.4
20191017114103 50 137 1.7 13.9 0.00 0.96 0.00 69 1002.4
20191017113603 50 142 4.3 13.9 0.00 0.96 0.00 69 1002.5
20191017113103 50 145 3.5 11.3 0.00 0.96 0.00 68 1002.5
20191017112604 50 138 2.6 13.9 0.00 0.96 0.00 68 1002.4
20191017112103 50 159 4.3 18.2 0.00 0.96 0.00 68 1002.5
20191017111603 50 123 7.0 11.3 0.00 0.96 0.00 68 1002.4
20191017111103 50 113 1.7 11.3 0.00 0.96 0.00 68 1002.3
20191017110603 50 127 0.9 6.1 0.00 0.96 0.00 68 1002.2
20191017110103 50 182 1.7 6.1 0.00 0.96 0.00 68 1002.2
20191017105603 50 114 1.7 11.3 0.00 0.96 0.00 68 1002.3
20191017105101 50 179 1.7 11.3 0.00 0.96 0.00 68 1002.3
20191017104602 50 131 2.6 8.7 0.00 0.96 0.00 67 1002.2
20191017104102 50 134 3.5 10.4 0.00 0.96 0.00 68 1002.2
20191017103603 50 127 3.5 10.4 0.00 0.96 0.00 68 1002.2
20191017103102 50 154 2.6 9.6 0.00 0.96 0.00 68 1002.2
20191017102602 50 168 2.6 11.3 0.00 0.96 0.00 68 1002.2
20191017102101 49 199 1.7 8.7 0.00 0.96 0.00 69 1002.1
20191017101601 49 162 2.6 5.2 0.00 0.96 0.00 68 1001.9
20191017101102 49 133 0.9 7.8 0.00 0.96 0.00 68 1002.0
20191017100601 50 138 1.7 7.8 0.00 0.96 0.00 68 1001.9
20191017100101 50 107 0.9 10.4 0.00 0.96 0.00 68 1001.8
20191017095605 50 142 3.5 8.7 0.00 0.96 0.00 68 1001.7
20191017095104 50 125 1.7 7.8 0.00 0.96 0.00 69 1001.7
20191017094603 50 142 1.7 8.7 0.00 0.96 0.00 68 1001.7
20191017094103 50 144 3.5 8.7 0.00 0.96 0.00 69 1001.6
20191017093603 50 113 1.7 13.9 0.00 0.96 0.00 67 1001.4
20191017093103 50 144 4.3 13.9 0.00 0.96 0.00 67 1001.4
20191017092603 50 110 6.1 13.0 0.00 0.96 0.00 66 1001.6
20191017092103 50 185 0.9 9.6 0.00 0.96 0.00 66 1001.4
20191017091602 50 144 0.9 13.0 0.00 0.96 0.00 66 1001.4
20191017091102 50 123 5.2 13.0 0.00 0.96 0.00 66 1001.4
20191017090603 50 134 3.5 13.0 0.00 0.96 0.00 65 1001.3
20191017090103 50 278 1.7 13.0 0.00 0.96 0.00 65 1001.4
20191017085602 50 121 3.5 13.0 0.00 0.96 0.00 66 1001.3
20191017085101 50 123 1.7 9.6 0.00 0.96 0.00 65 1001.4
20191017084601 50 138 1.7 9.6 0.00 0.96 0.00 66 1001.2
20191017084102 51 145 1.7 11.3 0.00 0.96 0.00 65 1001.3
20191017083602 51 131 1.7 11.3 0.00 0.96 0.00 66 1001.3
20191017083101 51 130 1.7 8.7 0.00 0.96 0.00 66 1001.3
20191017082602 51 165 3.5 9.6 0.00 0.96 0.00 66 1001.4
20191017082103 51 173 3.5 10.4 0.00 0.96 0.00 69 1001.3
20191017081602 51 113 1.7 9.6 0.00 0.96 0.00 69 1001.2
20191017081101 51 164 1.7 16.5 0.00 0.96 0.00 68 1001.1
20191017080602 52 161 4.3 16.5 0.00 0.96 0.00 68 1001.1
20191017080101 52 220 3.5 10.4 0.00 0.96 0.00 68 1001.2
20191017075601 52 142 1.7 7.8 0.00 0.96 0.00 68 1001.2
20191017075102 52 178 1.7 11.3 0.00 0.96 0.00 68 1001.2
20191017074603 52 152 3.5 11.3 0.00 0.96 0.00 68 1001.1
20191017074103 52 159 2.6 8.7 0.00 0.96 0.00 68 1001.1
20191017073603 52 92 1.7 3.5 0.00 0.96 0.00 69 1000.9
20191017073103 52 180 0.0 5.2 0.00 0.96 0.00 68 1001.1
20191017072603 52 131 1.7 5.2 0.00 0.96 0.00 68 1001.0
20191017072103 52 149 0.9 3.5 0.00 0.96 0.00 68 1001.1
20191017071600 52 147 0.0 12.2 0.00 0.96 0.00 68 1001.0
20191017071059 53 133 0.9 12.2 0.00 0.96 0.00 68 1000.9
20191017070556 53 124 1.7 6.1 0.00 0.96 0.00 68 1001.0
20191017070050 53 144 0.9 6.1 0.00 0.96 0.00 67 1001.0
20191017065546 53 85 0.9 10.4 0.00 0.96 0.00 67 1001.1
20191017065046 53 138 2.6 10.4 0.00 0.96 0.00 67 1001.1
20191017064546 53 142 1.7 13.9 0.00 0.96 0.00 67 1001.1
20191017064043 53 145 6.1 17.4 0.00 0.96 0.00 67 1001.1
20191017063542 53 118 4.3 17.4 0.00 0.96 0.00 67 1001.0
20191017063037 53 137 4.3 17.4 0.00 0.96 0.00 68 1001.0
20191017062536 52 144 4.3 17.4 0.00 0.96 0.00 69 1001.0
20191017062032 52 104 3.5 13.0 0.00 0.96 0.00 68 1001.2
20191017061532 52 144 0.9 13.0 0.00 0.96 0.00 69 1001.2
20191017061030 52 141 4.3 10.4 0.00 0.96 0.00 69 1001.2
20191017060531 52 189 2.6 12.2 0.00 0.96 0.00 69 1001.2
20191017060031 52 117 1.7 12.2 0.00 0.96 0.00 69 1001.2
20191017055531 52 149 1.7 12.2 0.00 0.96 0.00 69 1001.1
20191017055030 52 41 1.7 13.0 0.00 0.96 0.00 69 1001.1
20191017054530 52 138 4.3 13.0 0.00 0.96 0.00 69 1001.2
20191017054031 52 125 6.1 13.0 0.00 0.96 0.00 69 1001.0
20191017053531 52 82 3.5 12.2 0.00 0.96 0.00 69 1001.0
20191017053032 52 56 5.2 12.2 0.00 0.96 0.00 69 1001.1
20191017052532 52 100 2.6 7.8 0.00 0.96 0.00 69 1001.2
20191017052031 52 127 2.6 13.0 0.00 0.96 0.00 69 1001.3
20191017051531 52 172 4.3 13.0 0.00 0.96 0.00 69 1001.2
20191017051031 51 158 2.6 13.0 0.00 0.96 0.00 69 1001.3
20191017050530 51 133 3.5 11.3 0.00 0.96 0.00 70 1001.3
20191017050031 51 116 2.6 11.3 0.00 0.96 0.00 70 1001.2
20191017045529 51 154 3.5 11.3 0.00 0.96 0.00 70 1001.1
20191017045028 51 128 3.5 10.4 0.00 0.96 0.00 70 1001.2
20191017044526 51 131 3.5 10.4 0.00 0.96 0.00 70 1001.2
20191017044014 51 182 2.6 10.4 0.00 0.96 0.00 69 1001.2
20191017043515 51 140 3.5 8.7 0.00 0.96 0.00 69 1001.1
20191017043013 51 137 1.7 12.2 0.00 0.96 0.00 69 1001.3
20191017042513 51 135 3.5 12.2 0.00 0.96 0.00 70 1001.4
20191017042013 51 111 4.3 13.0 0.00 0.96 0.00 69 1001.3
20191017041511 51 131 4.3 13.0 0.00 0.96 0.00 70 1001.4
20191017041011 51 147 1.7 8.7 0.00 0.96 0.00 70 1001.3
20191017040511 51 145 1.7 14.8 0.00 0.96 0.00 70 1001.3
20191017040004 51 134 3.5 14.8 0.00 0.96 0.00 70 1001.4
20191017035503 51 117 3.5 13.9 0.00 0.96 0.96 69 1001.4
20191017035002 51 125 4.3 11.3 0.00 0.96 0.96 70 1001.3
20191017034501 51 120 5.2 11.3 0.00 0.96 0.96 70 1001.3
20191017034001 51 109 2.6 13.9 0.00 0.96 0.96 70 1001.4
20191017033501 51 130 2.6 14.8 0.00 0.96 0.96 70 1001.3
20191017033000 51 111 5.2 14.8 0.00 0.96 0.96 69 1001.5
20191017032501 51 147 4.3 11.3 0.00 0.96 0.96 70 1001.5
20191017032000 50 144 1.7 10.4 0.00 0.96 0.96 71 1001.4
20191017031500 50 90 1.7 30.4 0.00 0.96 0.96 70 1001.4
20191017031001 50 68 3.5 30.4 0.00 0.96 0.96 70 1001.7
20191017030500 50 162 4.3 8.7 0.00 0.96 0.96 70 1001.9
20191017030000 50 109 1.7 10.4 0.00 0.96 0.96 70 1001.9
20191017025459 51 131 3.5 12.2 0.00 0.96 0.96 69 1001.8
20191017025000 51 128 5.2 20.0 0.00 0.96 0.96 69 1001.7
20191017024500 51 110 4.3 16.5 0.00 0.96 0.96 68 1001.5
20191017023959 51 97 3.5 16.5 0.00 0.96 0.96 68 1001.5
20191017023500 51 127 7.0 22.6 0.00 0.96 0.96 68 1001.4
20191017022959 51 90 7.0 22.6 0.00 0.96 0.96 68 1001.2
20191017022459 51 140 5.2 17.4 0.00 0.96 0.96 68 1000.9
20191017022000 51 100 9.6 15.6 0.00 0.96 0.96 68 1000.9
20191017021500 51 141 4.3 16.5 0.00 0.96 0.96 69 1001.0
20191017020959 51 154 6.1 16.5 0.00 0.96 0.96 68 1000.9
20191017020500 51 92 4.3 15.6 0.00 0.96 0.96 68 1001.1
20191017020000 51 107 5.2 17.4 0.00 0.96 0.96 68 1001.0
20191017015459 51 147 3.5 17.4 0.00 0.96 0.96 68 1001.0
20191017014959 51 90 5.2 13.9 0.00 0.96 0.96 68 1001.0
20191017014458 51 221 2.6 18.2 0.00 0.96 0.96 68 1001.0
20191017013958 51 103 5.2 22.6 0.00 0.96 0.96 68 1001.3
20191017013458 51 102 5.2 22.6 0.00 0.96 0.96 69 1001.3
20191017012958 51 166 3.5 13.0 0.00 0.96 0.96 68 1001.6
20191017012457 51 207 1.7 13.0 0.00 0.96 0.96 68 1001.8
20191017011958 51 138 3.5 11.3 0.00 0.96 0.96 68 1002.0
20191017011457 51 189 0.9 10.4 0.00 0.96 0.96 68 1002.0
20191017010957 51 196 1.7 11.3 0.00 0.96 0.96 67 1001.9
20191017010457 51 137 3.5 12.2 0.00 0.96 0.96 67 1001.9
20191017005957 52 147 1.7 12.2 0.00 0.96 0.96 68 1001.8
20191017005457 52 171 0.9 12.2 0.00 0.96 0.96 68 1002.0
20191017004957 52 116 1.7 12.2 0.00 0.96 0.96 68 1001.9
20191017004456 52 159 2.6 11.3 0.00 0.96 0.96 67 1002.0
20191017003957 52 188 4.3 12.2 0.00 0.96 0.96 67 1002.1
20191017003457 52 192 4.3 12.2 0.00 0.96 0.96 67 1002.0
20191017002957 53 96 3.5 13.9 0.00 0.96 0.96 67 1002.1
20191017002457 53 125 4.3 18.2 0.00 0.96 0.96 68 1002.2
20191017001956 53 149 5.2 18.2 0.00 0.96 0.96 68 1002.0
20191017001456 53 168 4.3 12.2 0.00 0.96 0.96 69 1002.0
20191017000956 52 140 7.0 11.3 0.00 0.96 0.96 69 1001.7
20191017000456 52 224 3.5 9.6 0.00 0.96 0.96 70 1001.5
20191016235956 52 107 2.6 11.3 0.00 0.96 0.96 71 1001.8
20191016235456 52 165 2.6 11.3 0.00 0.96 0.96 71 1001.9
20191016234955 52 147 0.0 5.2 0.00 0.96 0.96 72 1002.2
20191016234456 53 141 0.0 11.3 0.00 0.96 0.96 72 1002.1
20191016233955 53 127 2.6 11.3 0.00 0.96 0.96 71 1002.0
20191016233456 53 44 0.9 11.3 0.00 0.96 0.96 71 1001.8
20191016232955 53 152 2.6 11.3 0.00 0.96 0.96 71 1002.0
20191016232455 53 135 0.0 7.8 0.00 0.96 0.96 71 1002.1
20191016231955 53 141 1.7 3.5 0.00 0.96 0.96 71 1002.1
20191016231455 53 134 0.9 7.8 0.00 0.96 0.96 71 1002.1
20191016230955 54 148 1.7 7.8 0.00 0.96 0.96 71 1002.1
20191016230455 54 157 0.0 12.2 0.00 0.96 0.96 70 1002.1
20191016225955 53 145 0.9 12.2 0.00 0.96 0.96 72 1002.1
20191016225455 53 202 3.5 7.8 0.00 0.96 0.96 72 1002.0
20191016224954 53 135 1.7 2.6 0.00 0.96 0.96 72 1002.1
20191016224454 54 188 0.0 13.0 0.00 0.96 0.96 72 1002.0
20191016223953 54 157 0.0 13.0 0.00 0.96 0.96 71 1002.1
20191016223454 54 165 0.0 8.7 0.00 0.96 0.96 71 1002.1
20191016222953 54 137 0.9 8.7 0.00 0.96 0.96 71 1002.1
20191016222453 55 155 1.7 8.7 0.00 0.96 0.96 72 1002.3
20191016221953 55 100 0.0 7.8 0.00 0.96 0.96 72 1002.2
20191016221450 55 168 1.7 13.9 0.00 0.96 0.96 73 1002.1
20191016220950 56 161 3.5 10.4 0.00 0.96 0.96 74 1002.1
20191016220445 56 142 2.6 10.4 0.00 0.96 0.96 72 1002.1
20191016215946 56 133 3.5 11.3 0.00 0.96 0.96 74 1002.0
20191016215444 57 158 0.9 11.3 0.00 0.96 0.96 74 1001.8
20191016214941 57 97 0.9 13.0 0.00 0.96 0.96 75 1001.8
20191016214439 58 258 3.5 13.0 0.00 0.96 0.96 73 1001.7
20191016213937 58 162 2.6 9.6 0.00 0.96 0.96 75 1001.6
20191016213437 58 137 1.7 9.6 0.00 0.96 0.96 77 1001.7
20191016212937 58 113 0.0 3.5 0.00 0.96 0.96 79 1001.7
20191016212437 58 125 0.9 6.1 0.00 0.96 0.96 81 1001.8
20191016211937 58 145 0.9 10.4 0.00 0.96 0.96 82 1001.8
20191016211435 57 140 0.9 3.5 0.00 0.96 0.96 84 1001.9
20191016210935 57 133 0.9 3.5 0.00 0.96 0.96 85 1001.9
20191016210435 57 147 0.0 18.2 0.00 0.96 0.96 86 1001.7
20191016205931 57 151 3.5 18.2 0.00 0.96 0.96 86 1001.7
20191016205431 57 118 1.7 18.2 0.00 0.96 0.96 86 1001.6
20191016204931 57 175 5.2 18.2 0.00 0.96 0.96 90 1001.7
20191016204430 57 140 1.7 4.3 0.00 0.96 0.96 92 1001.7
20191016203931 57 149 0.0 0.0 0.01 0.96 0.96 93 1001.5
20191016203431 57 137 0.0 0.0 0.01 0.96 0.96 93 1001.4
20191016202931 56 135 0.0 0.0 0.01 0.96 0.96 93 1001.4
20191016202432 56 135 0.0 1.7 0.01 0.96 0.96 93 1001.5
20191016201931 56 135 0.0 2.6 0.02 0.96 0.96 93 1001.6
20191016201430 56 124 0.0 1.7 0.02 0.96 0.96 93 1001.7
20191016200931 57 127 0.0 1.7 0.04 0.96 0.96 93 1002.0
20191016200431 57 130 0.0 1.7 0.08 0.96 0.96 93 1002.1
20191016195931 57 125 0.0 3.5 0.10 0.96 0.96 94 1002.2
20191016195430 57 135 0.9 4.3 0.11 0.96 0.96 94 1002.3
20191016194931 57 152 1.7 6.1 0.12 0.96 0.96 94 1002.3
20191016194430 57 138 2.6 6.1 0.13 0.95 0.95 94 1002.6
20191016193931 57 138 0.9 5.2 0.15 0.95 0.95 94 1002.5
20191016193431 57 142 0.9 4.3 0.20 0.95 0.95 95 1002.5
20191016192931 57 131 1.7 4.3 0.23 0.95 0.95 94 1002.6
20191016192431 57 134 0.0 2.6 0.24 0.94 0.94 95 1002.7
20191016191931 57 138 0.0 4.3 0.28 0.94 0.94 95 1002.5
20191016191431 57 141 0.0 4.3 0.29 0.93 0.93 94 1002.6
20191016190930 58 121 0.9 2.6 0.29 0.91 0.91 95 1002.9
20191016190431 58 124 0.0 1.7 0.27 0.87 0.87 94 1003.1
20191016185931 58 131 0.0 2.6 0.27 0.86 0.86 94 1003.1
20191016185431 58 130 0.0 2.6 0.28 0.85 0.85 94 1003.0
20191016184931 58 144 0.0 1.7 0.28 0.84 0.84 94 1003.1
20191016184430 58 154 0.0 3.5 0.28 0.82 0.82 94 1003.2
20191016183932 58 134 0.9 3.5 0.25 0.78 0.78 94 1003.4
20191016183431 58 152 0.0 0.0 0.22 0.74 0.74 94 1003.6
20191016182931 58 152 0.0 0.9 0.22 0.72 0.72 94 1003.4
20191016182430 58 152 0.0 0.9 0.20 0.69 0.69 94 1003.6
20191016181931 58 135 0.0 0.0 0.18 0.66 0.66 94 1003.7
20191016181431 58 133 0.0 0.0 0.19 0.64 0.64 94 1003.8
20191016180931 58 133 0.0 0.0 0.19 0.62 0.62 94 1003.8
20191016180808 58 133 0.0 2.6 0.19 0.60 0.60 94 1003.8
20191016175930 58 130 0.0 4.3 0.19 0.58 0.58 94 1004.1
20191016175431 58 117 1.7 7.8 0.20 0.57 0.57 94 1004.4
20191016174931 58 131 2.6 6.1 0.20 0.55 0.55 94 1004.7
20191016174431 58 120 1.7 5.2 0.22 0.54 0.54 94 1004.8
20191016173930 58 138 0.9 6.1 0.25 0.53 0.53 94 1005.0
20191016173431 58 118 2.6 5.2 0.26 0.52 0.52 94 1005.1
20191016172923 58 133 1.7 5.2 0.26 0.50 0.50 94 1004.9
20191016172420 58 224 0.9 5.2 0.29 0.49 0.49 94 1004.7
20191016171921 58 134 1.7 7.8 0.29 0.47 0.47 94 1004.8
20191016171421 58 336 1.7 7.8 0.30 0.45 0.45 94 1004.9
20191016170922 58 323 1.7 5.2 0.30 0.43 0.43 94 1005.1
20191016170419 58 148 0.9 5.2 0.28 0.40 0.40 94 1005.3
20191016165919 58 142 0.9 5.2 0.28 0.38 0.38 94 1005.7
20191016165419 58 49 1.7 5.2 0.28 0.37 0.37 94 1005.8
20191016164911 58 154 1.7 4.3 0.27 0.34 0.34 94 1005.7
20191016164407 58 140 0.0 4.3 0.25 0.31 0.31 94 1006.4
20191016163907 58 133 1.7 4.3 0.23 0.27 0.27 94 1006.3
20191016163404 58 127 0.0 4.3 0.22 0.25 0.25 94 1006.6
20191016162905 58 123 0.9 0.9 0.20 0.22 0.22 94 1006.6
20191016162405 58 140 0.0 0.0 0.18 0.19 0.19 94 1006.9
20191016161903 58 140 0.0 0.0 0.16 0.16 0.16 93 1006.8
20191016161402 58 140 0.0 0.9 0.14 0.14 0.14 93 1006.9
20191016160902 58 140 0.0 0.0 0.12 0.12 0.12 93 1006.9
20191016160402 58 140 0.0 0.9 0.11 0.11 0.11 93 1007.1
20191016155902 58 140 0.0 1.7 0.10 0.10 0.10 93 1007.1
20191016155401 59 140 0.9 0.9 0.09 0.09 0.09 93 1007.2
20191016154902 59 138 0.0 0.9 0.07 0.07 0.07 93 1007.2
20191016154401 59 138 0.0 0.9 0.05 0.05 0.05 93 1007.3
20191016153902 59 138 0.0 0.9 0.04 0.04 0.04 93 1007.5
20191016153401 59 138 0.0 0.9 0.03 0.03 0.03 92 1007.7
20191016152902 59 138 0.0 0.9 0.02 0.02 0.02 92 1007.9
20191016152402 59 140 0.0 0.9 0.01 0.01 0.01 92 1008.1
20191016151901 59 135 0.0 2.6 0.00 0.00 0.00 92 1008.1
20191016151402 59 140 0.0 2.6 0.00 0.00 0.00 92 1008.2
20191016150902 59 142 0.0 2.6 0.00 0.00 0.00 92 1008.1
20191016150402 59 125 0.9 2.6 0.00 0.00 0.00 91 1008.2
20191016145902 59 144 1.7 2.6 0.00 0.00 0.00 91 1008.2
20191016145403 59 147 0.0 1.7 0.00 0.00 0.00 91 1008.0
20191016144903 60 135 0.9 2.6 0.00 0.00 0.00 91 1008.0
20191016144403 60 134 0.9 2.6 0.00 0.00 0.00 90 1008.1
20191016143903 60 137 0.9 1.7 0.00 0.00 0.00 91 1008.1
20191016143402 60 141 0.0 2.6 0.00 0.00 0.00 91 1008.2
20191016142903 60 137 0.0 3.5 0.00 0.00 0.00 91 1008.0
20191016142403 59 147 0.0 3.5 0.00 0.00 0.00 91 1008.1
20191016141902 59 131 0.0 2.6 0.00 0.00 0.00 91 1008.3
20191016141402 59 148 0.0 2.6 0.00 0.00 0.00 91 1008.6
20191016140902 59 124 0.0 2.6 0.00 0.00 0.00 91 1008.8
20191016140402 59 135 0.0 1.7 0.00 0.00 0.00 91 1009.0
20191016135902 58 135 0.0 2.6 0.00 0.00 0.00 90 1009.3
20191016135402 58 141 0.9 1.7 0.00 0.00 0.00 90 1009.4
20191016134902 58 141 0.0 2.6 0.00 0.00 0.00 91 1009.6
20191016134401 58 145 0.9 2.6 0.00 0.00 0.00 91 1009.6
20191016133902 58 135 0.9 2.6 0.00 0.00 0.00 91 1009.7
20191016133403 58 137 0.0 2.6 0.00 0.00 0.00 91 1009.8
20191016132902 58 137 0.9 2.6 0.00 0.00 0.00 92 1010.1
20191016132402 57 133 0.0 1.7 0.00 0.00 0.00 92 1010.2
20191016131903 57 123 0.0 0.9 0.00 0.00 0.00 92 1010.4
20191016131403 57 134 0.0 0.9 0.00 0.00 0.00 91 1010.4
20191016130902 56 134 0.0 0.9 0.00 0.00 0.00 91 1010.4
20191016130403 56 134 0.0 0.9 0.00 0.00 0.00 91 1010.6
20191016125902 56 134 0.0 1.7 0.00 0.00 0.00 91 1010.9
20191016125402 56 134 0.0 1.7 0.00 0.00 0.00 91 1011.1
20191016124902 56 141 0.9 1.7 0.00 0.00 0.00 91 1011.2